Flag Weather past 2 weeks in Grand Prairie, Texas, U.S.A.

Now
57 °F

Clear.


Feels Like: 53 °F
Forecast: 45 / 61 °F
Wind: 16 mph from Northwest

Location: Grand Prairie Municipal Airport

Current Time: Nov 23, 2014 at 8:59:02 PM

Latest Report: Nov 23, 2014 at 8:15 PM


Visibility: 10 mi

Pressure: 29.70 "Hg

Humidity: 57%

Dew point: 41 °F

Location of Grand PrairieLocation

Historic Weather in Grand Prairie — Graph

°F

Grand Prairie temperature yesterday

Maximum temperature yesterday: 62 °F (at 12:15 AM)
Minimum temperature yesterday: 55 °F (at 11:55 PM)
Average temperature yesterday: 59 °F

Past Weeks' High & Low Weather Summary

 TemperatureHumidityPressure
High81 °F (Nov 10, 2:50 PM)100% (Nov 15, 7:15 PM)30.62 "Hg (Nov 15, 7:15 PM)
Low27 °F (Nov 17, 5:15 AM)17% (Nov 18, 2:50 PM)29.42 "Hg (Nov 23, 12:50 PM)
Average46 °F68%30.16 "Hg
* Reported Nov 8 7:15 PM — Nov 23 7:55 PM, Grand Prairie, Weather by CustomWeather, © 2014

Note: Actual official high and low records may vary slightly from our data, if they occured in-between our weather recording intervals... More about our weather records

Advertising

Grand Prairie weather history for previous 24 hours

 ConditionsComfort  
Time TempWeatherWind HumidityBarometerVisibility
7:55 PM
Nov 23
57 °FClear.13 mph57%29.69 "Hg10 mi
7:15 PM60 °FClear.13 mph54%29.65 "Hg10 mi
4:50 PM72 °FSunny.16 mph31%29.49 "Hg10 mi
3:50 PM77 °FSunny.18 mph26%29.44 "Hg10 mi
2:50 PM79 °FSunny.20 mph23%29.42 "Hg10 mi
1:50 PM77 °FSunny.15 mph30%29.42 "Hg10 mi
12:50 PM73 °FSunny.15 mph38%29.42 "Hg10 mi
11:50 AM70 °FSunny.14 mph50%29.46 "Hg10 mi
10:50 AM66 °FSunny.14 mph64%29.50 "Hg10 mi
9:50 AM61 °FSunny.15 mph83%29.55 "Hg10 mi
8:50 AM57 °FSunny.7 mph100%29.59 "Hg10 mi
7:50 AM54 °FSunny.7 mph100%29.59 "Hg10 mi
5:35 AM55 °FPassing clouds.5 mph100%29.61 "Hg10 mi
5:15 AM55 °FPassing clouds.3 mph100%29.62 "Hg7 mi
4:55 AM55 °FPassing clouds.5 mph100%29.62 "Hg7 mi
4:35 AM56 °FLow clouds.6 mph100%29.63 "Hg4 mi
4:15 AM55 °FLow clouds.5 mph100%29.63 "Hg10 mi
3:55 AM55 °FPassing clouds.5 mph100%29.64 "Hg10 mi
3:35 AM55 °FPassing clouds.3 mph100%29.64 "Hg10 mi
3:15 AM55 °FClear.3 mph100%29.64 "Hg10 mi
2:55 AM55 °FClear.3 mph100%29.64 "Hg10 mi
2:35 AM55 °FClear.3 mph100%29.65 "Hg10 mi
2:15 AM55 °FClear.3 mph100%29.65 "Hg10 mi
1:55 AM55 °FClear.No wind100%29.65 "Hg10 mi
1:35 AM55 °FClear.No wind100%29.65 "Hg10 mi
1:15 AM55 °FClear.No wind100%29.67 "Hg10 mi
12:55 AM55 °FClear.5 mph100%29.66 "Hg10 mi
12:35 AM54 °FClear.No wind100%29.67 "Hg7 mi
12:15 AM55 °FClear.No wind100%29.68 "Hg10 mi
11:55 PM
Nov 22
55 °FClear.No wind100%29.69 "Hg10 mi
11:35 PM56 °FClear.3 mph100%29.72 "Hg10 mi
11:15 PM56 °FClear.6 mph100%29.71 "Hg10 mi
10:55 PM56 °FClear.6 mph100%29.75 "Hg10 mi
10:35 PM57 °FClear.5 mph100%29.78 "Hg10 mi
10:15 PM57 °FClear.7 mph100%29.78 "Hg10 mi
9:55 PM57 °FClear.6 mph100%29.77 "Hg10 mi
9:35 PM57 °FClear.6 mph100%29.78 "Hg10 mi
9:15 PM57 °FClear.7 mph100%29.79 "Hg10 mi
8:55 PM57 °FClear.6 mph100%29.80 "Hg10 mi
8:15 PM58 °FClear.3 mph100%29.84 "Hg10 mi
Weather by CustomWeather, © 2014

See weather overviewHow to use our weather pages